Tracking 18710 objects as of 29-June-2017
HD Live streaming from Space Station
objects crossing your sky now

ARIANE 5 R/B

Track ARIANE 5 R/B now!


NORAD ID: 29275
Int'l Code: 2006-033D
Perigee: 311.0 km
Apogee: 33,231.0 km
Inclination: 5.9 °
Period: 583.9 minutes
Semi major axis: 23141 km
RCS: 37.7588 m2 (large)
Launch date: August 11, 2006
Source: France (FR)
Launch site: FRENCH GUIANA (FRGUI)

Note: This is a ROCKET BODY
Your satellite tracking list
Your tracking list is empty





NASA's NSSDC Master Catalog

Two Line Element Set (TLE):
1 29275U 06033D   17179.12362311 -.00000155 +00000-0 +23817-3 0  9997
2 29275 005.9387 200.5304 7112609 338.5508 002.5645 02.46605115094141
Source of the keplerian elements: AFSPC